TimeCAT,TemperatureF,Dew PointF,Humidity,Sea Level PressureIn,VisibilityMPH,Wind Direction,Wind SpeedMPH,Gust SpeedMPH,PrecipitationIn,Events,Conditions,WindDirDegrees,DateUTC
12:00 AM,64.4,62.6,94,30.09,6.2,ENE,9.2,-,N/A,,Mostly Cloudy,70,2012-12-09 22:00:00
1:00 AM,64.4,62.6,94,30.09,-9999.0,East,6.9,-,N/A,,Clear,100,2012-12-09 23:00:00
2:00 AM,64.4,62.6,94,30.06,-9999.0,ENE,8.1,-,N/A,,Clear,70,2012-12-10 00:00:00
5:00 AM,62.6,62.6,100,30.06,6.2,NE,3.5,-,N/A,,Mostly Cloudy,50,2012-12-10 03:00:00
6:00 AM,64.4,62.6,94,30.06,6.2,NE,8.1,-,N/A,,Mostly Cloudy,40,2012-12-10 04:00:00
7:00 AM,68.0,62.6,83,30.09,6.2,NE,8.1,-,N/A,,Mostly Cloudy,50,2012-12-10 05:00:00
8:00 AM,68,63,80,,19,NNE,8.1,,,,Mostly Cloudy,30,2012-12-10 06:00:00
8:00 AM,68.0,62.6,83,30.09,6.2,NNE,8.1,-,N/A,,Mostly Cloudy,30,2012-12-10 06:00:00
9:00 AM,69.8,62.6,78,30.09,6.2,NNE,6.9,-,N/A,,Mostly Cloudy,30,2012-12-10 07:00:00
10:00 AM,73.4,64.4,73,30.09,6.2,NNE,5.8,-,N/A,,Mostly Cloudy,30,2012-12-10 08:00:00
11:00 AM,73.4,62.6,69,30.09,6.2,Variable,3.5,-,N/A,,Mostly Cloudy,0,2012-12-10 09:00:00
12:00 PM,73.4,62.6,69,30.06,6.2,NNW,3.5,-,N/A,,Mostly Cloudy,330,2012-12-10 10:00:00
2:00 PM,80,61,43,,19,SW,6.9,,,,Partly Cloudy,230,2012-12-10 12:00:00
2:00 PM,80.6,60.8,51,29.98,6.2,SW,6.9,-,N/A,,Mostly Cloudy,230,2012-12-10 12:00:00
3:00 PM,78.8,57.2,47,29.98,6.2,SSW,3.5,-,N/A,Thunderstorm,Thunderstorm,210,2012-12-10 13:00:00
4:00 PM,71.6,62.6,73,29.95,6.2,North,11.5,-,N/A,Thunderstorm,Thunderstorm,360,2012-12-10 14:00:00
6:00 PM,66.2,64.4,94,30.01,3.7,Calm,Calm,-,N/A,Rain-Thunderstorm,Thunderstorms and Rain,0,2012-12-10 16:00:00
7:00 PM,66.2,64.4,94,30.04,3.7,NNE,6.9,-,N/A,Rain-Thunderstorm,Thunderstorms and Rain,20,2012-12-10 17:00:00
8:00 PM,64.4,62.6,94,30.04,5.6,ENE,5.8,-,N/A,Rain,Light Rain,70,2012-12-10 18:00:00
9:00 PM,64.4,60.8,88,30.06,-9999.0,East,6.9,-,N/A,,Clear,80,2012-12-10 19:00:00
10:00 PM,64.4,62.6,94,30.06,-9999.0,ENE,9.2,-,N/A,,Clear,60,2012-12-10 20:00:00
11:00 PM,64.4,62.6,94,30.04,-9999.0,East,8.1,-,N/A,,Clear,80,2012-12-10 21:00:00